DYE226 LIRN-LIMJ

Flight info

Callsign DYE226
Flight time 1h 9m
Altitude 30000
Route VEXUV8G/24 VEXUV DCT PNZ DCT LUNAK DCT RAVAL DCT ELB DCT NORNI DCT BETEN/N0377F180 M729 IDONA
Aircraft A320/M-SDE3FGHIRWY/LB1

Departure

Time 2026-04-21 20:43
Airport Naples International Airport (LIRN)

Arrival

Time 2026-04-21 21:52
Airport Genoa Cristoforo Colombo Airport (LIMJ)
Time Latitude Longitude Altitude Speed Heading
2026-04-21 19:35 40.87867 14.28133 294 ft 0 kts 141°
2026-04-21 20:34 40.87867 14.28132 294 ft 0 kts 141°
2026-04-21 20:34 40.87878 14.28120 298 ft 2 kts 136°
2026-04-21 20:35 40.87890 14.28105 295 ft 2 kts 131°
2026-04-21 20:35 40.87900 14.28088 299 ft 2 kts 122°
2026-04-21 20:35 40.87908 14.28069 296 ft 2 kts 103°
2026-04-21 20:35 40.87909 14.28047 298 ft 2 kts 71°
2026-04-21 20:36 40.87903 14.28029 297 ft 1 kts 52°
2026-04-21 20:36 40.87900 14.28025 297 ft 0 kts 51°
2026-04-21 20:37 40.87908 14.28037 299 ft 5 kts 51°
2026-04-21 20:37 40.87948 14.28097 295 ft 12 kts 40°
2026-04-21 20:38 40.88026 14.28154 294 ft 14 kts 47°
2026-04-21 20:38 40.88065 14.28291 288 ft 18 kts 93°
2026-04-21 20:38 40.88048 14.28464 286 ft 20 kts 97°
2026-04-21 20:38 40.88065 14.28631 283 ft 19 kts 57°
2026-04-21 20:39 40.88141 14.28770 279 ft 17 kts 52°
2026-04-21 20:39 40.88221 14.28910 276 ft 21 kts 53°
2026-04-21 20:39 40.88313 14.29069 272 ft 22 kts 53°
2026-04-21 20:39 40.88411 14.29238 268 ft 23 kts 53°
2026-04-21 20:40 40.88501 14.29394 263 ft 22 kts 52°
2026-04-21 20:40 40.88601 14.29567 258 ft 23 kts 52°
2026-04-21 20:40 40.88694 14.29726 254 ft 21 kts 52°
2026-04-21 20:40 40.88788 14.29890 249 ft 24 kts 53°
2026-04-21 20:41 40.88885 14.30059 243 ft 20 kts 52°
2026-04-21 20:41 40.88955 14.30179 238 ft 10 kts 44°
2026-04-21 20:41 40.89019 14.30153 238 ft 10 kts 325°
2026-04-21 20:41 40.89069 14.30089 238 ft 9 kts 285°
2026-04-21 20:42 40.89059 14.30044 239 ft 0 kts 238°
2026-04-21 20:42 40.89059 14.30042 239 ft 2 kts 238°
2026-04-21 20:42 40.88938 14.29783 248 ft 71 kts 238°
2026-04-21 20:42 40.88559 14.28983 270 ft 132 kts 238°
2026-04-21 20:43 40.88008 14.27800 528 ft 155 kts 242°
2026-04-21 20:43 40.87382 14.26660 1174 ft 156 kts 212°
2026-04-21 20:43 40.86350 14.26305 1794 ft 157 kts 174°
2026-04-21 20:43 40.85234 14.26506 2244 ft 172 kts 173°
2026-04-21 20:44 40.83980 14.26714 2538 ft 191 kts 173°
2026-04-21 20:44 40.82637 14.26922 3076 ft 196 kts 174°
2026-04-21 20:44 40.81273 14.27127 3656 ft 199 kts 175°
2026-04-21 20:44 40.79886 14.27335 4251 ft 202 kts 175°
2026-04-21 20:45 40.78485 14.27541 4838 ft 204 kts 176°
2026-04-21 20:45 40.77062 14.27748 5402 ft 207 kts 177°
2026-04-21 20:45 40.75620 14.27957 5963 ft 210 kts 177°
2026-04-21 20:45 40.74140 14.28170 6525 ft 213 kts 178°
2026-04-21 20:46 40.73164 14.28309 6879 ft 214 kts 178°
2026-04-21 20:46 40.71678 14.28342 7408 ft 212 kts 194°
2026-04-21 20:46 40.70296 14.27687 7804 ft 217 kts 217°
2026-04-21 20:46 40.69074 14.26386 7967 ft 238 kts 225°
2026-04-21 20:47 40.67769 14.24868 8264 ft 262 kts 225°
2026-04-21 20:47 40.66352 14.23229 8761 ft 277 kts 225°
2026-04-21 20:47 40.64881 14.21545 9531 ft 282 kts 225°
2026-04-21 20:47 40.63390 14.19848 10300 ft 285 kts 225°
2026-04-21 20:48 40.61879 14.18132 11061 ft 288 kts 225°
2026-04-21 20:48 40.60354 14.16402 11813 ft 291 kts 225°
2026-04-21 20:48 40.58816 14.14656 12564 ft 294 kts 226°
2026-04-21 20:48 40.57263 14.12891 13306 ft 297 kts 226°
2026-04-21 20:49 40.55692 14.11110 14007 ft 300 kts 226°
2026-04-21 20:49 40.54106 14.09314 14656 ft 302 kts 226°
2026-04-21 20:49 40.52485 14.07476 15315 ft 305 kts 226°
2026-04-21 20:49 40.50968 14.05546 15961 ft 302 kts 236°
2026-04-21 20:50 40.49833 14.03246 16602 ft 299 kts 249°
2026-04-21 20:50 40.49077 14.00712 17245 ft 299 kts 254°
2026-04-21 20:50 40.48362 13.98140 17892 ft 301 kts 253°
2026-04-21 20:50 40.47634 13.95543 18503 ft 304 kts 253°
2026-04-21 20:51 40.46898 13.92935 19041 ft 306 kts 253°
2026-04-21 20:51 40.46151 13.90300 19603 ft 309 kts 253°
2026-04-21 20:51 40.45397 13.87644 20148 ft 311 kts 253°
2026-04-21 20:51 40.44636 13.84969 20696 ft 314 kts 253°
2026-04-21 20:52 40.43872 13.82276 21244 ft 316 kts 254°
2026-04-21 20:52 40.43347 13.79490 21767 ft 314 kts 268°
2026-04-21 20:52 40.43424 13.76639 22282 ft 314 kts 282°
2026-04-21 20:52 40.44099 13.73871 22475 ft 326 kts 296°
2026-04-21 20:53 40.45398 13.71356 22616 ft 341 kts 307°
2026-04-21 20:53 40.46925 13.68895 22751 ft 354 kts 307°
2026-04-21 20:53 40.48504 13.66333 22895 ft 367 kts 307°
2026-04-21 20:53 40.50130 13.63682 23134 ft 376 kts 307°
2026-04-21 20:54 40.51777 13.60986 23546 ft 380 kts 307°
2026-04-21 20:54 40.53435 13.58267 23931 ft 382 kts 307°
2026-04-21 20:54 40.55100 13.55534 24327 ft 384 kts 307°
2026-04-21 20:54 40.56773 13.52788 24728 ft 385 kts 307°
2026-04-21 20:55 40.58475 13.49993 25120 ft 387 kts 307°
2026-04-21 20:55 40.60160 13.47226 25504 ft 388 kts 307°
2026-04-21 20:55 40.61828 13.44483 25885 ft 389 kts 307°
2026-04-21 20:55 40.63541 13.41661 26258 ft 391 kts 307°
2026-04-21 20:56 40.65240 13.38858 26626 ft 392 kts 307°
2026-04-21 20:56 40.66943 13.36042 26984 ft 393 kts 307°
2026-04-21 20:56 40.68649 13.33223 27340 ft 395 kts 307°
2026-04-21 20:56 40.70363 13.30391 27686 ft 396 kts 307°
2026-04-21 20:57 40.72083 13.27549 28017 ft 398 kts 306°
2026-04-21 20:57 40.73810 13.24690 28352 ft 399 kts 306°
2026-04-21 20:57 40.75535 13.21823 28664 ft 400 kts 306°
2026-04-21 20:57 40.77268 13.18937 28965 ft 401 kts 306°
2026-04-21 20:58 40.79003 13.16046 29260 ft 403 kts 306°
2026-04-21 20:58 40.80746 13.13146 29545 ft 404 kts 306°
2026-04-21 20:58 40.82494 13.10237 29818 ft 405 kts 306°
2026-04-21 20:58 40.84244 13.07321 29954 ft 402 kts 306°
2026-04-21 20:59 40.87656 13.01623 29973 ft 392 kts 306°
2026-04-21 20:59 40.91042 12.95987 29967 ft 391 kts 309°
2026-04-21 21:00 40.94837 12.90812 29972 ft 392 kts 312°
2026-04-21 21:00 40.98653 12.85657 29970 ft 392 kts 311°
2026-04-21 21:01 41.02493 12.80459 29968 ft 392 kts 311°
2026-04-21 21:01 41.06299 12.75284 29968 ft 392 kts 311°
2026-04-21 21:02 41.10100 12.70106 29969 ft 392 kts 311°
2026-04-21 21:02 41.13908 12.64932 29976 ft 392 kts 311°
2026-04-21 21:03 41.17709 12.59759 29963 ft 391 kts 311°
2026-04-21 21:03 41.21503 12.54577 29969 ft 391 kts 311°
2026-04-21 21:04 41.25293 12.49386 29962 ft 391 kts 311°
2026-04-21 21:04 41.29081 12.44191 29959 ft 391 kts 311°
2026-04-21 21:05 41.32872 12.38989 29957 ft 391 kts 311°
2026-04-21 21:05 41.36658 12.33783 29958 ft 391 kts 311°
2026-04-21 21:06 41.40346 12.28694 29955 ft 391 kts 311°
2026-04-21 21:06 41.44125 12.23479 29959 ft 391 kts 311°
2026-04-21 21:07 41.47901 12.18254 29960 ft 391 kts 311°
2026-04-21 21:07 41.51677 12.13033 29962 ft 391 kts 311°
2026-04-21 21:08 41.55444 12.07799 29962 ft 391 kts 311°
2026-04-21 21:08 41.59209 12.02567 29963 ft 391 kts 311°
2026-04-21 21:09 41.62974 11.97324 29969 ft 391 kts 312°
2026-04-21 21:09 41.66732 11.92084 29960 ft 390 kts 312°
2026-04-21 21:10 41.70487 11.86838 29958 ft 390 kts 312°
2026-04-21 21:10 41.74226 11.81580 29975 ft 390 kts 311°
2026-04-21 21:11 41.77955 11.76302 29977 ft 390 kts 311°
2026-04-21 21:11 41.81674 11.71028 29968 ft 389 kts 311°
2026-04-21 21:12 41.85409 11.65770 29962 ft 389 kts 312°
2026-04-21 21:12 41.89166 11.60489 29966 ft 389 kts 312°
2026-04-21 21:13 41.92895 11.55228 29966 ft 388 kts 312°
2026-04-21 21:13 41.96613 11.49964 29966 ft 388 kts 312°
2026-04-21 21:14 42.00325 11.44698 29967 ft 388 kts 312°
2026-04-21 21:14 42.04031 11.39427 29966 ft 387 kts 312°
2026-04-21 21:15 42.07730 11.34163 29967 ft 387 kts 312°
2026-04-21 21:15 42.10802 11.29788 29969 ft 387 kts 312°
2026-04-21 21:16 42.14998 11.23794 29964 ft 386 kts 312°
2026-04-21 21:16 42.18687 11.18519 29965 ft 386 kts 312°
2026-04-21 21:17 42.22368 11.13252 29967 ft 386 kts 312°
2026-04-21 21:17 42.26046 11.07974 29965 ft 386 kts 312°
2026-04-21 21:18 42.29718 11.02692 29969 ft 386 kts 312°
2026-04-21 21:18 42.32786 10.98260 29961 ft 385 kts 312°
2026-04-21 21:19 42.36448 10.92970 29959 ft 385 kts 312°
2026-04-21 21:19 42.40109 10.87686 29961 ft 385 kts 312°
2026-04-21 21:20 42.43766 10.82398 29958 ft 385 kts 312°
2026-04-21 21:20 42.47412 10.77101 29956 ft 384 kts 312°
2026-04-21 21:21 42.51060 10.71805 29959 ft 384 kts 312°
2026-04-21 21:21 42.54703 10.66497 29960 ft 384 kts 312°
2026-04-21 21:22 42.58227 10.61359 29965 ft 384 kts 311°
2026-04-21 21:22 42.61855 10.56051 29962 ft 383 kts 311°
2026-04-21 21:23 42.65474 10.50748 29967 ft 383 kts 311°
2026-04-21 21:23 42.69083 10.45432 29970 ft 382 kts 311°
2026-04-21 21:24 42.72772 10.40227 29967 ft 383 kts 318°
2026-04-21 21:24 42.77311 10.36385 29973 ft 386 kts 328°
2026-04-21 21:25 42.82045 10.32834 29968 ft 385 kts 327°
2026-04-21 21:25 42.86734 10.29295 29968 ft 385 kts 327°
2026-04-21 21:26 42.91418 10.25752 29966 ft 385 kts 327°
2026-04-21 21:26 42.96095 10.22203 29967 ft 385 kts 327°
2026-04-21 21:27 43.00772 10.18654 29968 ft 384 kts 327°
2026-04-21 21:27 43.05445 10.15116 29972 ft 384 kts 327°
2026-04-21 21:28 43.10109 10.11573 29981 ft 383 kts 327°
2026-04-21 21:29 43.17091 10.06241 29977 ft 382 kts 327°
2026-04-21 21:29 43.21734 10.02690 29981 ft 382 kts 327°
2026-04-21 21:30 43.26365 9.99137 29981 ft 381 kts 327°
2026-04-21 21:30 43.30997 9.95586 29978 ft 381 kts 327°
2026-04-21 21:31 43.35627 9.92035 29980 ft 381 kts 327°
2026-04-21 21:31 43.40244 9.88475 29982 ft 380 kts 327°
2026-04-21 21:32 43.44859 9.84912 29980 ft 380 kts 327°
2026-04-21 21:32 43.49459 9.81369 29489 ft 377 kts 327°
2026-04-21 21:32 43.51784 9.79573 28644 ft 377 kts 327°
2026-04-21 21:33 43.54061 9.77808 27963 ft 374 kts 327°
2026-04-21 21:33 43.56322 9.76052 27310 ft 372 kts 327°
2026-04-21 21:33 43.58566 9.74308 26673 ft 369 kts 327°
2026-04-21 21:33 43.60791 9.72577 26059 ft 367 kts 327°
2026-04-21 21:34 43.63010 9.70854 25448 ft 364 kts 327°
2026-04-21 21:34 43.65208 9.69148 24862 ft 362 kts 327°
2026-04-21 21:34 43.67400 9.67446 24287 ft 360 kts 327°
2026-04-21 21:34 43.69579 9.65751 23730 ft 358 kts 326°
2026-04-21 21:35 43.71745 9.64062 23125 ft 357 kts 326°
2026-04-21 21:35 43.73897 9.62379 22542 ft 354 kts 326°
2026-04-21 21:35 43.76038 9.60706 21986 ft 352 kts 326°
2026-04-21 21:35 43.78162 9.59045 21476 ft 350 kts 326°
2026-04-21 21:36 43.80272 9.57393 20955 ft 347 kts 326°
2026-04-21 21:36 43.82369 9.55752 20446 ft 345 kts 326°
2026-04-21 21:36 43.84456 9.54121 19940 ft 343 kts 326°
2026-04-21 21:36 43.86526 9.52505 19451 ft 341 kts 326°
2026-04-21 21:37 43.88585 9.50892 18970 ft 339 kts 326°
2026-04-21 21:37 43.90630 9.49284 18487 ft 337 kts 326°
2026-04-21 21:37 43.92669 9.47682 17980 ft 336 kts 326°
2026-04-21 21:37 43.94694 9.46091 17440 ft 334 kts 326°
2026-04-21 21:38 43.96714 9.44500 16906 ft 333 kts 327°
2026-04-21 21:38 43.98759 9.43006 16397 ft 333 kts 332°
2026-04-21 21:38 44.00932 9.41870 15887 ft 334 kts 336°
2026-04-21 21:38 44.03118 9.40790 15403 ft 333 kts 336°
2026-04-21 21:39 44.05294 9.39718 14916 ft 332 kts 336°
2026-04-21 21:39 44.07447 9.38659 14717 ft 322 kts 336°
2026-04-21 21:39 44.09518 9.37645 14587 ft 308 kts 336°
2026-04-21 21:39 44.11495 9.36676 14463 ft 286 kts 336°
2026-04-21 21:40 44.13286 9.35797 14350 ft 269 kts 336°
2026-04-21 21:40 44.15040 9.34927 14214 ft 260 kts 336°
2026-04-21 21:40 44.16694 9.34106 13992 ft 248 kts 336°
2026-04-21 21:40 44.18284 9.33314 13695 ft 238 kts 336°
2026-04-21 21:41 44.19822 9.32544 13262 ft 233 kts 336°
2026-04-21 21:41 44.21318 9.31751 12859 ft 225 kts 330°
2026-04-21 21:41 44.22614 9.30609 12424 ft 218 kts 320°
2026-04-21 21:41 44.23816 9.29320 11935 ft 218 kts 320°
2026-04-21 21:42 44.25019 9.28038 11449 ft 217 kts 320°
2026-04-21 21:42 44.26222 9.26763 10973 ft 217 kts 321°
2026-04-21 21:42 44.27416 9.25480 10505 ft 216 kts 316°
2026-04-21 21:42 44.28429 9.23949 10038 ft 214 kts 307°
2026-04-21 21:43 44.29469 9.22463 9528 ft 215 kts 318°
2026-04-21 21:43 44.30641 9.21157 9005 ft 216 kts 321°
2026-04-21 21:43 44.31852 9.19918 8485 ft 216 kts 323°
2026-04-21 21:43 44.33063 9.18685 7977 ft 216 kts 323°
2026-04-21 21:44 44.34272 9.17444 7492 ft 215 kts 323°
2026-04-21 21:44 44.35306 9.15971 6999 ft 213 kts 293°
2026-04-21 21:44 44.35425 9.13966 6505 ft 212 kts 256°
2026-04-21 21:44 44.35117 9.11938 5923 ft 215 kts 273°
2026-04-21 21:45 44.35567 9.09999 5419 ft 211 kts 297°
2026-04-21 21:45 44.36111 9.08079 4901 ft 213 kts 289°
2026-04-21 21:45 44.36456 9.06075 4396 ft 213 kts 268°
2026-04-21 21:45 44.36021 9.04154 3950 ft 210 kts 232°
2026-04-21 21:46 44.34868 9.02961 3466 ft 209 kts 196°
2026-04-21 21:46 44.33446 9.03000 3170 ft 201 kts 157°
2026-04-21 21:46 44.32411 9.04211 3066 ft 194 kts 118°
2026-04-21 21:46 44.32176 9.05939 3004 ft 176 kts 77°
2026-04-21 21:47 44.32780 9.07259 2967 ft 154 kts 30°
2026-04-21 21:47 44.33789 9.07480 2999 ft 150 kts 346°
2026-04-21 21:47 44.34750 9.06944 3014 ft 148 kts 332°
2026-04-21 21:47 44.35637 9.06238 3021 ft 146 kts 329°
2026-04-21 21:48 44.36465 9.05420 2958 ft 146 kts 312°
2026-04-21 21:48 44.36930 9.04180 2821 ft 146 kts 286°
2026-04-21 21:48 44.37227 9.02828 2645 ft 145 kts 287°
2026-04-21 21:48 44.37522 9.01483 2454 ft 145 kts 287°
2026-04-21 21:49 44.37815 9.00140 2251 ft 144 kts 287°
2026-04-21 21:49 44.38105 8.98802 2053 ft 144 kts 287°
2026-04-21 21:49 44.38394 8.97466 1844 ft 143 kts 287°
2026-04-21 21:49 44.38681 8.96134 1635 ft 143 kts 287°
2026-04-21 21:50 44.38969 8.94812 1422 ft 142 kts 289°
2026-04-21 21:50 44.39339 8.93485 1266 ft 148 kts 294°
2026-04-21 21:50 44.39705 8.92164 1135 ft 146 kts 285°
2026-04-21 21:50 44.39920 8.90740 975 ft 151 kts 283°
2026-04-21 21:51 44.40186 8.89338 665 ft 149 kts 285°
2026-04-21 21:51 44.40374 8.88403 485 ft 152 kts 284°
2026-04-21 21:51 44.40649 8.86985 268 ft 151 kts 284°
2026-04-21 21:51 44.40882 8.85772 63 ft 149 kts 283°
2026-04-21 21:52 44.41132 8.84511 22 ft 91 kts 285°
2026-04-21 21:52 44.41225 8.84030 20 ft 41 kts 285°
2026-04-21 21:52 44.41290 8.83817 20 ft 16 kts 310°
2026-04-21 21:52 44.41364 8.83740 19 ft 9 kts 351°
2026-04-21 21:53 44.41404 8.83767 20 ft 5 kts 45°
2026-04-21 21:53 44.41419 8.83827 19 ft 11 kts 93°
2026-04-21 21:53 44.41395 8.83955 20 ft 14 kts 105°
2026-04-21 21:53 44.41365 8.84098 17 ft 16 kts 107°
2026-04-21 21:54 44.41335 8.84257 17 ft 17 kts 105°
2026-04-21 21:54 44.41316 8.84404 19 ft 15 kts 73°
2026-04-21 21:54 44.41379 8.84525 18 ft 16 kts 53°
2026-04-21 21:54 44.41448 8.84652 18 ft 17 kts 52°
2026-04-21 21:55 44.41512 8.84780 18 ft 12 kts 80°
2026-04-21 21:55 44.41496 8.84892 19 ft 6 kts 105°
2026-04-21 21:55 44.41493 8.84905 18 ft 1 kts 105°
2026-04-21 21:55 44.41492 8.84909 18 ft 0 kts 105°
2026-04-21 21:56 44.41490 8.84923 18 ft 2 kts 105°
2026-04-21 21:56 44.41488 8.84933 18 ft 0 kts 105°